Location: Unspecified
(0.0000°N, 0.0000°E)
Time: 22:14:16
(UTC+00:00)

DELTA 1 DEB - Visible Passes

Search period start: 09 February 2026 00:00
Search period end: 19 February 2026 00:00
Orbit: 1341 x 1431 km, 101.1° (Epoch: 22 September)

Date Brightness Start Highest point End Pass type
(mag) Time Alt. Az. Time Alt. Az. Time Alt. Az.
9 Feb ? 02:42:15 19° SSE 02:42:15 19° SSE 02:44:36 10° SSE visible
10 Feb ? 03:17:41 22° S 03:17:41 22° S 03:20:06 10° S visible
11 Feb ? 03:53:07 18° SSW 03:53:07 18° SSW 03:54:43 10° SSW visible
12 Feb ? 02:35:03 16° SSE 02:35:03 16° SSE 02:36:44 10° SSE visible
13 Feb ? 03:10:30 19° S 03:10:30 19° S 03:12:27 10° S visible
14 Feb ? 03:45:56 16° SSW 03:45:56 16° SSW 03:47:14 10° SSW visible
15 Feb ? 02:27:52 13° SSE 02:27:52 13° SSE 02:28:47 10° SSE visible
15 Feb?04:21:22SW04:21:22SW04:03:53Nvisible
16 Feb ? 03:03:19 16° S 03:03:19 16° S 03:04:46 10° S visible
17 Feb ? 03:38:45 14° SSW 03:38:45 14° SSW 03:39:43 10° SSW visible
18 Feb ? 02:20:42 10° SSE 02:20:42 10° SSE 02:20:45 10° SSE visible
18 Feb?04:14:12SSW04:14:12SSW03:56:38Nvisible
